Regional Weather Roundup
Issued by NWS

Home | Current Version | Previous Version | Text Only | Print | Product List | Glossary On
Versions: 1 2 3 4 5 6 7 8 9 10 11 12 13 14 15 16 17 18 19 20 21 22 23 24 25 26 27 28 29 30 31 32 33 34 35 36 37 38 39 40 41 42 43 44 45 46 47 48 49 50
651
ASUS45 KREV 171410
RWRNV
NEVADA REGIONAL WEATHER ROUNDUP
NATIONAL WEATHER SERVICE RENO NV
700 AM PDT SAT AUG 17 2019

NOTE: "FAIR" INDICATES FEW OR NO CLOUDS BELOW 12,000 FEET WITH NO
SIGNIFICANT WEATHER AND/OR OBSTRUCTIONS TO VISIBILITY.

NVZ001-003-004-171500-
WESTERN NEVADA

CITY           SKY/WX    TMP DP  RH WIND       PRES   REMARKS
RENO           CLEAR     65  38  36 W6        30.02R
CARSON CITY    FAIR      55  41  58 CALM      30.04R
MINDEN         FAIR      46  37  71 CALM      30.06S
SLIDE MTN        N/A     50  34  53 NW15        N/A
PYRAMID LAKE     N/A     72 N/A N/A SW6         N/A
FALLON         CLEAR     63  41  44 SE5       29.97R
LOVELOCK       CLEAR     60  38  43 CALM      29.97R
$$

NVZ002-CAZ072-073-171500-
NORTHERN AND CENTRAL SIERRA

CITY           SKY/WX    TMP DP  RH WIND       PRES   REMARKS
S. LAKE TAHOE  CLEAR     42  37  82 CALM      30.13S
TRUCKEE        CLEAR     37  34  87 CALM      30.13S
SQUAW VLY 8000   N/A     57  32  38 S12         N/A
BLUE CANYON    CLEAR     67  41  38 CALM      30.07R
MAMMOTH LAKES  FAIR      39  28  65 CALM      30.19R
BRIDGEPORT       N/A     36  32  87 S1          N/A
$$

NVZ030-031-036-171500-
NORTHERN NEVADA

CITY           SKY/WX    TMP DP  RH WIND       PRES   REMARKS
ELKO           MOSUNNY   54  34  46 CALM      30.03R
WINNEMUCCA     CLEAR     51  31  46 S6        30.00R
BATTLE MOUNTAI   N/A     52  32  46 S3        30.00R
WENDOVER       SUNNY     70  40  33 CALM      29.95R
$$

NVZ035-037-171500-
CENTRAL NEVADA

CITY           SKY/WX    TMP DP  RH WIND       PRES   REMARKS
ELY            MOSUNNY   50  28  42 S7        30.10R
EUREKA           N/A     55  31  39 S6        30.07R
$$

NVZ013-014-171500-
SOUTH CENTRAL NEVADA

CITY           SKY/WX    TMP DP  RH WIND       PRES   REMARKS
TONOPAH        CLEAR     68  33  27 NE7       30.04R
$$

NVZ017-020-022-171500-
SOUTHERN NEVADA

CITY           SKY/WX    TMP DP  RH WIND       PRES   REMARKS
LAS VEGAS      SUNNY     86  35  16 S7        29.78R
N. LAS VEGAS   SUNNY     79  37  22 NW3       29.79R
NELLIS AFB     SUNNY     82  33  17 N8        29.78R
HENDERSON      SUNNY     82  37  20 VRB6      29.84R
MERCURY        SUNNY     76  30  18 NW3       29.87R
$$




USA.gov is the U.S. government's official web portal to all federal, state and local government web resources and services.